Hurdegaryp, Netherlands
Current Conditions -  °F | °C
As of 6:25 AM on Thursday 27 Nov 2014 (Local Time) from EHLW Reporting Station
Haze Haze  
Wind Chill: 34°   Ceiling: 700
Heat Index: 41°   Visibility: 4mi
Dew Point: 39°   Wind: 12mph
Humidity: 93%   Direction: 130°SE
Pressure: 29.8"   Gusts: NA
Location:  53.21°N, 5.94°E
Report Text: EHLW 270525Z AUTO 13010KT 6000 BR OVC007 05/04 Q1009 GRN
Loading
Personal Weather Stations






























Interactive Weather Map New forecast layout! Learn more

10-Day Weather Forecast

Advertisements
Track Severe Weather on mobile